RH
85 87 88 88 88 88 87 83 77 73 67 61 59 61 62 61 60 59 59 57 53 46 41 38 39 45 53 66 82 96 100 93 80 65 50 39 33 31 29 29 28 29 30 32 32 31 29 27 25 24 22 21 21 20 19 18 16 15 13 12 11 10 10 10 10 10 10 10 10 10 10 10 10 10 11 10 10 11 10 11 11 11 11 11 11
83 83 81 81 85 87 84 80 76 70 63 59 60 61 60 59 58 55 52 49 44 39 38 40 45 55 69 81 87 82 70 55 44 35 29 27 26 25 25 25 26 26 25 24 22 20 20 19 19 19 18 17 16 15 14 12 11 10 10 10 9 10 9 9 9 9 10 10 10 10 10 10 10 10 10 10 9 10 9 9 9 9 10 10 10
78 76 76 82 86 85 82 79 73 65 60 59 60 59 57 54 50 46 42 39 36 36 39 47 56 65 70 68 60 48 39 32 28 25 23 22 22 22 22 21 20 18 17 17 17 17 17 17 16 16 15 13 11 10 10 9 9 9 9 9 9 10 10 9 10 10 10 10 9 9 9 8 8 7 7 7 7 7 7 7 7 7 7 8 8
72 73 78 83 84 82 81 75 65 58 57 58 57 54 49 44 39 36 33 32 34 39 46 54 58 56 50 42 35 30 27 24 22 21 20 20 19 17 16 15 15 15 16 16 16 16 15 14 13 11 10 9 9 9 9 8 9 9 10 10 10 10 10 9 9 8 8 8 7 6 6 6 6 5 5 5 5 5 6 5 6 6 6 6 6
70 75 79 81 82 81 75 65 57 55 56 55 52 48 41 35 30 29 30 35 41 47 51 51 46 39 33 29 25 23 21 20 20 19 16 15 14 13 13 14 15 14 14 13 12 12 10 9 8 8 8 8 8 8 9 9 10 10 10 9 9 8 8 7 6 6 5 5 5 5 5 5 5 5 5 5 5 5 5 5 5 5 5 5 5
74 79 82 84 82 75 64 56 55 56 55 50 44 37 31 27 27 30 37 44 48 48 45 39 33 28 25 22 20 19 18 18 16 14 12 12 13 14 14 13 13 11 10 10 8 7 7 7 8 8 8 9 9 10 10 9 9 8 8 7 6 6 5 5 5 5 5 5 5 5 5 5 5 5 5 5 5 5 5 5 5 5 6 6 5
82 84 85 83 74 63 56 55 56 54 49 41 32 27 25 28 34 41 45 46 44 40 35 30 25 22 20 19 18 17 15 13 12 12 13 13 13 13 12 10 9 8 7 6 7 7 7 8 8 9 9 10 9 9 8 7 7 6 5 5 5 5 5 5 5 5 5 5 5 5 5 5 5 5 5 5 5 5 5 6 6 5 6 6 6
86 86 82 72 61 55 55 56 53 45 36 28 25 26 31 38 43 45 43 40 36 32 27 23 21 19 18 17 15 12 11 11 12 13 13 12 11 9 8 8 7 6 6 7 7 8 8 9 9 9 9 8 7 6 6 5 5 5 5 4 5 5 5 5 5 5 5 5 5 5 5 5 5 5 5 5 5 5 5 5 5 5 6 5 6
85 81 70 60 55 55 55 50 40 31 25 25 29 35 41 44 44 41 38 34 30 25 22 20 19 18 15 13 11 10 11 12 12 11 10 8 8 7 6 6 6 7 7 8 8 9 9 8 8 7 6 5 5 5 5 5 5 5 5 5 5 5 5 5 5 5 5 5 5 5 5 5 5 5 5 5 5 5 5 5 5 5 5 5 5
79 69 60 56 55 52 45 36 28 24 27 32 39 43 44 43 40 37 33 28 24 22 20 19 17 14 11 10 11 11 12 11 9 8 7 6 6 6 6 7 8 8 9 8 8 8 7 6 5 5 5 4 4 4 4 5 5 5 5 5 5 5 5 5 5 4 5 5 5 5 5 5 5 5 5 4 4 5 5 5 5 5 5 5 5
68 60 56 53 48 40 32 26 25 28 34 40 44 45 44 41 37 33 28 24 21 19 18 15 12 11 10 11 12 11 9 8 6 6 6 6 6 7 8 9 9 8 8 7 6 5 5 5 5 4 4 4 5 5 5 5 5 5 6 5 5 6 5 5 5 5 5 5 5 5 5 5 5 4 4 4 5 5 5 5 5 5 5 5 5
60 55 50 44 37 30 26 26 29 35 41 44 45 44 42 38 32 27 23 21 19 17 14 12 10 10 12 11 10 8 7 6 6 6 6 6 7 8 8 8 7 7 6 5 5 5 4 4 4 5 5 5 5 5 5 5 5 5 6 6 6 6 6 6 6 5 5 5 5 5 5 5 5 4 4 4 5 5 5 5 5 5 5 5 5
54 48 41 34 29 25 25 30 36 42 46 47 46 42 38 32 27 23 21 18 16 14 11 10 11 12 11 9 7 6 6 6 5 6 7 8 8 8 7 7 6 5 5 5 4 5 5 5 5 5 5 5 5 5 5 5 5 6 6 6 6 6 6 6 6 6 5 5 5 5 5 5 5 4 5 5 5 5 5 5 5 5 5 5 5
45 38 33 28 25 25 30 38 44 47 48 46 43 38 32 27 23 20 18 16 13 11 11 12 12 10 8 7 7 6 6 6 7 7 8 8 7 7 6 5 5 4 5 5 5 5 5 5 5 5 5 5 5 5 5 6 6 6 6 6 6 6 6 6 6 6 6 5 5 5 5 5 5 5 5 5 5 5 5 5 5 5 5 5 5
37 33 28 25 26 32 40 46 49 48 46 43 38 31 26 22 19 17 16 13 11 11 13 12 10 8 7 7 6 6 6 7 8 8 8 7 6 5 4 4 4 5 5 5 5 5 5 5 5 5 5 5 5 6 6 6 6 6 6 6 6 6 6 6 6 6 6 6 6 6 5 5 5 5 5 5 5 5 5 5 5 5 5 5 5
33 28 25 27 35 44 49 50 49 46 43 37 31 26 22 19 17 15 13 11 12 13 12 10 8 7 7 6 6 7 8 8 8 7 7 5 5 4 4 5 5 5 5 5 5 5 5 5 5 5 5 6 6 6 6 6 6 6 6 6 6 6 6 6 6 6 6 6 6 7 7 6 6 5 5 5 5 5 5 5 5 5 5 5 5
28 25 28 37 47 51 52 50 48 43 37 31 25 22 19 17 15 13 12 13 14 13 10 8 8 7 6 7 8 9 9 8 8 6 5 4 4 4 4 4 5 5 5 5 5 5 5 6 6 6 6 6 6 6 6 6 6 6 6 6 6 6 6 6 7 7 7 7 7 7 7 7 6 6 6 6 6 5 5 5 6 6 6 5 5
26 30 39 50 54 53 51 48 43 37 30 25 22 19 17 15 13 12 13 15 13 10 9 8 8 7 7 8 9 9 9 8 6 5 5 4 4 4 5 5 5 5 5 5 6 6 6 6 6 6 7 6 7 7 6 6 6 6 7 7 7 7 7 7 8 8 8 8 8 8 7 7 7 6 6 6 6 6 6 6 6 6 6 6 6
31 41 52 57 55 52 49 44 37 31 26 22 19 17 15 14 13 13 15 14 11 9 9 8 7 7 9 10 10 9 8 7 5 5 5 5 5 5 5 5 5 5 5 6 6 6 6 6 7 7 7 7 7 7 6 7 7 7 7 8 8 8 8 8 8 8 8 8 8 8 8 8 7 7 7 6 6 6 6 6 6 6 6 6 6
43 54 59 57 53 50 44 37 31 27 23 19 17 16 14 13 13 16 15 12 9 9 9 7 8 9 10 10 10 9 7 6 5 5 5 5 5 5 5 5 5 5 6 6 6 6 6 7 7 7 7 7 7 7 7 7 8 8 8 8 8 8 8 8 8 8 8 8 8 8 8 8 8 8 7 7 7 7 7 6 6 6 6 6 6
55 61 59 54 51 45 37 32 28 24 20 17 16 15 13 13 16 17 13 10 10 9 8 7 10 11 11 11 10 8 6 6 5 5 5 5 5 5 5 6 6 6 6 6 7 7 7 7 7 7 7 7 7 8 8 9 9 9 9 9 9 9 9 9 9 9 9 9 9 9 9 9 9 9 8 8 8 7 7 7 7 7 6 7 7
61 60 56 52 46 38 33 30 27 21 18 17 16 14 13 15 17 15 11 10 10 9 8 9 11 12 12 11 9 7 6 5 5 5 5 5 5 6 6 6 6 6 7 7 7 7 7 7 7 7 7 8 8 9 9 9 9 9 9 9 9 9 9 9 9 9 9 9 9 9 10 10 10 9 9 9 9 8 8 8 7 8 7 7 7
61 57 52 47 39 34 33 30 23 19 18 17 15 14 15 17 17 13 11 11 10 8 9 11 12 13 12 10 9 7 6 5 5 5 5 6 6 6 6 7 7 7 7 7 8 8 8 8 8 8 9 9 10 10 9 9 9 9 9 9 9 9 9 9 9 9 9 10 10 10 10 10 10 10 10 10 10 9 9 9 9 8 8 8 8
58 52 47 41 36 35 33 26 20 19 18 16 14 15 17 18 16 12 11 11 9 8 10 12 13 13 12 10 8 7 6 6 6 6 6 6 7 7 7 8 8 7 8 8 8 7 7 8 8 9 9 10 10 10 9 9 9 9 9 9 9 9 9 9 9 10 10 10 10 10 10 10 10 11 11 11 11 10 10 10 10 9 9 9 8
53 47 42 38 38 37 31 23 20 19 17 15 15 17 19 18 14 12 12 10 9 9 12 13 14 13 12 10 8 7 7 6 6 6 7 7 7 8 8 8 8 8 8 7 8 8 8 9 10 10 11 11 10 10 10 9 9 9 9 9 9 9 9 10 10 10 10 10 10 10 11 11 11 11 11 11 11 12 11 11 11 11 10 10 9
47 43 40 40 41 36 27 22 21 19 16 16 17 20 20 17 13 13 12 9 9 11 13 14 14 14 12 11 9 8 7 7 7 7 7 7 8 8 8 8 8 8 8 9 9 10 10 11 11 11 11 11 10 10 10 9 9 9 9 9 10 10 10 10 10 10 10 10 11 11 10 11 11 11 11 12 12 12 12 12 12 12 12 11 11
43 41 41 43 42 34 25 22 20 18 17 18 20 22 19 15 14 13 11 10 11 13 14 15 16 15 13 12 10 9 8 7 7 7 7 8 8 8 8 9 9 9 9 9 9 10 10 12 12 12 12 11 11 10 10 10 10 10 10 11 11 10 11 11 11 11 11 11 12 12 12 12 12 11 11 12 12 12 12 12 12 13 12 12 11
43 42 45 46 40 30 25 23 20 18 19 20 22 22 18 15 15 13 11 11 13 15 16 17 17 17 15 14 12 11 9 8 7 7 8 9 9 10 10 9 9 9 9 9 10 11 12 13 13 13 12 12 11 11 11 11 11 11 10 10 11 11 11 11 11 11 12 12 12 13 13 13 13 13 13 13 13 12 12 12 12 12 13 13 12
43 45 48 45 36 29 26 23 21 20 21 22 24 21 17 16 15 13 11 13 15 18 19 20 20 20 18 16 15 14 12 11 9 9 10 10 10 11 10 10 10 10 10 11 12 12 13 13 13 13 12 12 12 12 12 12 12 12 12 12 12 12 12 12 13 13 13 13 13 14 15 15 15 15 15 15 14 14 13 13 13 13 13 13 14
45 49 49 41 34 29 26 24 22 22 23 25 24 20 17 17 15 12 12 15 18 20 22 23 23 23 22 21 20 18 17 16 13 11 11 11 12 12 11 11 11 12 12 13 13 13 13 13 13 13 12 13 13 12 13 13 13 13 14 13 13 14 14 14 14 14 14 15 15 15 15 15 16 16 16 16 16 16 16 15 15 15 15 15 15
48 51 47 39 33 30 26 25 24 24 25 26 23 19 18 17 15 12 13 16 20 22 23 25 26 26 26 26 25 24 22 20 16 13 12 12 12 13 12 12 13 13 13 13 13 13 13 13 13 13 13 13 13 13 13 14 14 15 15 15 15 15 15 15 15 15 16 16 16 16 17 17 17 17 17 17 17 17 17 17 17 17 17 17 17
51 51 45 39 34 30 27 26 25 25 27 26 21 18 19 17 14 13 15 18 21 23 24 26 28 29 29 30 29 28 26 24 21 18 15 13 13 14 15 15 15 14 14 14 14 14 14 14 14 14 14 14 15 15 15 16 16 16 16 16 16 16 16 17 17 16 16 17 17 17 17 18 18 18 18 18 18 18 18 18 17 17 17 17 18
53 50 45 40 35 30 28 27 26 27 28 24 20 19 20 17 15 15 17 20 23 24 25 28 29 30 31 33 32 31 29 27 25 23 21 19 17 16 16 17 17 17 16 15 15 16 16 17 17 17 17 16 16 16 16 16 16 17 17 17 18 18 18 18 18 17 18 18 18 18 19 19 19 19 20 20 20 20 20 19 19 19 18 18 18
53 50 46 40 34 30 29 27 27 29 28 23 20 20 20 17 16 17 19 22 25 25 26 29 31 32 34 36 36 35 33 31 29 29 30 29 26 23 21 19 18 19 19 19 20 20 20 20 20 20 20 20 19 19 19 19 19 19 20 20 21 21 20 20 20 20 20 20 20 20 20 20 20 20 21 21 21 22 22 22 22 22 21 21 21
53 51 47 40 34 31 29 27 28 30 27 22 21 21 20 17 17 17 20 24 26 26 27 29 31 33 36 38 39 39 37 35 34 35 36 37 36 34 30 26 23 22 22 22 23 24 24 25 25 25 24 24 24 24 24 24 24 24 24 24 24 24 24 24 24 24 25 25 25 24 24 24 24 24 24 23 23 22 23 22 23 23 23 23 23
54 52 47 39 33 31 29 28 30 30 26 21 22 22 20 19 19 19 22 26 28 27 28 30 33 35 37 39 41 41 40 39 39 38 38 39 40 38 37 35 35 34 33 32 31 30 30 30 30 30 30 30 29 29 29 29 29 29 28 28 28 27 28 29 29 29 29 29 28 28 28 28 28 28 29 29 28 27 26 25 24 24 23 22 22
56 52 45 38 34 32 29 28 31 30 24 22 23 23 21 21 22 22 25 29 31 30 30 33 35 37 39 40 42 43 43 43 43 41 40 39 40 41 42 44 45 45 45 45 45 44 43 43 41 39 38 37 36 35 34 34 34 34 34 34 34 35 35 36 35 36 36 35 34 33 32 32 32 32 31 31 30 30 29 29 30 30 30 28 27
57 51 44 38 34 31 28 30 32 29 23 22 24 22 21 22 24 24 27 32 33 32 32 34 37 40 42 43 45 46 45 45 44 44 43 42 42 43 45 47 48 49 51 53 55 58 60 61 61 59 56 53 50 47 44 43 42 41 41 41 42 42 43 43 42 42 42 41 40 39 38 38 38 37 36 35 35 34 34 34 34 34 34 33 32
57 50 43 38 34 30 29 32 33 28 23 23 25 22 21 24 25 24 27 32 35 34 33 34 38 41 44 45 46 46 46 45 44 44 45 45 45 45 46 47 48 51 54 57 61 64 67 69 71 73 73 72 70 67 64 61 58 55 53 51 50 49 48 48 48 48 48 48 47 47 47 47 47 47 46 46 46 46 45 44 43 41 39 38 36
57 49 43 37 32 30 31 33 33 27 23 24 25 21 20 24 26 24 25 30 35 36 33 32 35 39 43 45 46 46 46 47 47 45 45 46 47 46 47 48 49 52 55 59 61 64 67 69 72 75 78 81 83 83 82 81 78 76 74 72 70 68 65 62 61 60 60 60 58 57 57 56 55 55 56 56 57 58 57 55 53 51 49 47 45
56 48 42 36 31 30 33 35 33 26 23 25 25 21 21 25 27 25 25 29 33 36 35 33 32 36 40 44 46 47 49 50 51 49 47 46 47 48 49 51 52 54 57 59 61 64 66 69 73 77 80 83 86 89 90 91 92 92 91 89 87 84 82 80 79 77 76 74 73 72 71 71 70 70 70 70 70 71 71 71 71 68 66 64 61
55 47 40 35 31 32 36 37 33 26 24 26 25 21 22 27 29 27 26 28 32 36 38 36 33 33 38 43 46 48 51 53 55 56 54 51 51 51 52 53 55 56 58 60 62 65 68 70 73 76 79 82 85 88 90 93 95 98 99 98 97 95 93 91 90 89 88 87 86 85 86 86 87 88 88 87 86 86 88 89 89 88 86 85 83
53 45 39 33 31 34 39 39 33 26 25 27 26 22 23 28 31 29 27 28 32 35 38 40 38 35 36 40 44 47 50 53 56 59 61 60 60 58 57 57 56 56 58 60 62 64 67 70 73 76 79 82 85 88 91 93 96 98 101 103 104 104 104 103 103 102 102 100 98 97 96 96 96 98 99 101 102 102 103 103 103 102 102 102 101
51 43 37 32 33 37 42 41 34 27 26 28 26 23 24 30 34 33 29 29 32 34 37 41 43 40 37 39 41 43 46 49 52 55 59 62 64 65 64 63 62 61 60 60 61 63 65 67 70 74 77 80 84 87 90 93 96 98 100 102 104 105 107 107 108 110 110 110 110 109 109 108 107 106 106 106 107 108 108 109 108 108 108 108 106
49 41 35 33 35 41 46 44 34 27 28 30 27 24 27 33 37 38 34 31 33 35 36 39 45 46 43 41 41 42 43 44 46 49 51 54 58 62 65 66 67 68 68 68 67 68 68 68 69 70 72 75 78 81 85 89 93 96 98 99 101 103 105 107 108 109 109 109 109 110 111 112 112 112 110 107 106 106 106 107 107 107 107 107 106
47 39 35 35 38 45 49 45 34 28 30 31 27 26 31 36 41 43 40 35 35 38 38 39 43 49 50 48 45 44 44 44 44 45 47 49 52 56 60 64 67 70 73 74 75 75 75 76 75 75 74 75 76 77 80 83 86 90 93 96 98 99 101 103 104 106 106 106 106 107 108 110 112 114 114 112 108 105 103 103 103 103 103 103 103
44 38 35 36 42 49 52 46 34 29 32 32 28 28 33 40 45 48 46 40 38 40 42 41 43 49 54 56 53 51 49 49 48 48 47 48 51 53 56 60 65 68 71 74 76 78 79 80 80 80 81 81 81 81 82 83 85 87 89 91 92 94 95 96 98 99 101 101 100 101 102 104 107 109 112 113 113 111 108 105 103 102 101 99 97
43 37 36 39 46 53 55 47 34 31 33 33 29 31 37 43 49 52 51 47 43 43 45 46 44 46 53 59 61 60 57 54 53 53 52 51 52 53 55 57 61 65 69 73 75 78 80 81 82 82 82 82 83 84 85 86 87 89 91 91 91 92 92 93 94 96 96 96 95 95 95 96 97 99 100 102 105 107 108 108 107 106 105 103 100
42 38 38 43 50 57 58 47 34 32 35 34 31 33 40 47 53 56 58 55 50 47 49 51 48 46 49 55 61 65 66 63 60 59 57 56 55 54 54 55 56 58 62 66 70 74 78 82 84 85 84 83 82 82 83 83 85 85 87 89 90 90 91 92 93 94 94 94 93 93 92 92 93 93 92 92 92 93 94 96 98 100 102 103 104
42 38 40 46 53 60 59 46 34 33 36 34 33 36 43 50 56 60 63 63 58 53 53 56 55 51 48 50 55 62 67 69 70 68 65 62 61 59 57 57 56 56 57 58 59 62 67 72 77 82 85 86 86 85 83 83 82 81 81 81 81 82 83 85 86 87 89 90 90 90 90 91 92 92 92 92 90 89 88 87 87 88 90 92 95
43 40 43 49 57 63 60 45 34 35 37 35 35 39 45 52 58 61 65 68 67 61 57 58 61 60 55 51 51 54 57 61 65 68 68 68 67 66 65 64 63 62 62 61 60 59 59 59 62 66 71 76 80 82 83 83 83 81 80 78 76 75 75 75 75 77 79 80 81 82 82 84 86 87 88 90 90 90 90 89 87 86 85 84 83
Wind_Speed
95 97 99 101 103 105 107 109 112 114 116 116 117 119 121 123 125 128 130 132 134 136 136 136 135 135 136 139 141 142 143 142 141 138 134 131 130 130 132 134 137 139 142 144 147 149 150 152 154 155 156 157 157 156 155 153 151 148 145 142 139 136 133 130 127 124 122 121 120 119 117 116 115 114 113 111 110 109 107 106 104 102 101 100 99
99 101 103 104 106 107 109 113 116 117 118 119 121 122 125 127 130 133 134 136 137 137 136 136 137 139 141 142 142 140 138 135 132 130 129 129 131 134 137 139 142 144 146 148 150 151 152 154 154 154 154 153 151 149 146 143 141 138 136 133 130 128 125 123 120 117 116 115 115 115 114 113 111 110 110 108 107 107 105 104 103 101 99 98 97
102 104 106 107 108 110 113 116 118 118 120 122 124 126 129 132 134 136 136 137 137 137 137 139 140 141 141 139 136 133 130 129 129 130 132 134 136 139 141 144 145 147 149 150 151 152 152 152 151 149 147 145 142 139 136 134 131 129 127 124 123 121 119 117 115 113 112 111 112 111 110 109 108 106 105 104 103 103 102 101 100 98 97 95 95
106 107 108 109 111 114 117 118 119 121 123 125 127 130 133 135 136 137 137 137 137 138 140 141 141 139 135 132 129 128 128 130 132 134 136 139 141 143 145 146 147 148 149 149 149 148 147 145 143 140 138 135 133 130 127 125 123 121 119 118 117 115 114 113 111 109 108 107 106 106 105 104 103 101 99 98 98 97 96 95 95 94 93 92 91
108 109 110 112 115 117 118 120 121 123 126 128 131 134 136 137 137 137 137 137 139 140 140 139 136 132 130 128 127 128 130 133 136 139 141 143 144 145 147 147 148 147 146 144 142 140 137 135 133 130 128 126 124 122 119 118 116 115 114 113 112 110 109 107 106 104 102 100 99 99 99 97 96 95 93 92 91 91 90 90 89 89 88 87 87
109 111 113 115 117 118 120 122 124 126 129 132 135 137 138 137 137 136 138 139 140 139 136 132 130 129 129 129 129 131 134 137 140 142 144 145 146 147 147 145 143 141 138 135 132 130 128 125 123 121 119 118 117 115 114 112 111 110 108 107 105 104 102 101 99 97 95 94 93 92 92 91 90 89 87 86 85 85 84 84 84 83 83 83 83
111 113 115 117 119 120 122 124 126 129 133 135 137 138 137 136 137 138 139 138 136 132 130 129 129 129 130 131 134 136 138 140 142 143 144 145 144 143 141 139 136 132 129 126 123 121 119 117 116 114 113 112 111 110 108 107 105 104 102 100 98 97 96 94 93 91 90 88 87 86 86 85 84 83 82 81 80 80 79 79 80 79 78 79 79
114 116 117 119 121 123 124 127 130 133 136 138 138 137 137 137 138 138 136 133 130 128 128 129 130 131 133 136 138 140 140 141 142 143 142 141 138 135 133 130 128 125 122 119 116 114 113 112 110 109 108 106 105 103 102 100 99 97 95 94 92 91 90 88 87 85 84 83 82 81 80 79 79 78 78 77 75 74 74 75 75 75 75 75 74
116 118 120 121 123 125 128 131 134 137 138 138 137 137 137 138 136 134 130 128 127 128 129 130 132 135 137 140 141 141 141 141 140 138 135 132 129 127 125 123 121 118 116 113 111 109 107 106 105 103 102 100 99 97 95 94 93 92 90 89 87 86 84 83 82 80 79 78 77 76 75 74 73 73 73 72 70 70 70 70 71 72 72 71 70
118 120 122 124 126 129 132 135 137 138 138 138 137 138 137 135 131 128 127 127 128 129 131 133 136 139 140 141 141 141 140 138 134 129 126 123 121 120 118 116 114 112 109 108 105 103 102 100 99 98 96 95 93 91 90 88 87 86 85 84 83 82 80 79 78 76 75 74 72 71 70 70 69 68 68 67 65 65 65 65 66 67 68 68 67
121 123 125 127 130 133 135 137 139 139 138 138 137 136 133 129 126 126 126 128 130 131 134 137 139 140 141 141 140 138 134 130 126 123 120 118 116 113 111 109 107 105 104 103 101 100 98 96 94 93 91 90 88 86 85 83 82 81 80 79 78 77 77 76 74 73 71 70 68 67 66 65 64 64 63 62 61 61 61 61 62 62 63 64 64
124 126 128 131 133 135 138 139 139 138 138 137 135 131 127 125 125 126 128 130 132 135 138 139 140 140 140 138 135 131 127 124 121 118 115 112 109 107 105 104 103 101 100 99 98 96 94 91 89 88 86 85 83 81 80 78 76 75 75 74 73 73 72 71 70 69 67 66 64 63 62 61 60 59 58 57 57 57 57 57 57 58 58 59 60
127 129 131 133 136 138 139 138 138 137 136 133 128 125 123 124 125 128 130 133 136 138 139 139 139 139 136 132 128 125 122 120 117 113 109 106 103 101 100 100 99 98 96 95 93 91 89 87 85 83 81 79 78 76 75 73 72 71 70 69 69 68 67 66 65 64 63 62 60 58 57 57 56 54 53 53 53 53 52 52 53 53 54 54 55
130 132 133 136 137 138 138 138 137 136 131 126 123 122 123 125 127 129 132 136 139 139 139 139 138 134 130 126 124 121 118 114 110 107 103 101 99 98 97 95 94 92 91 89 87 86 84 82 81 79 77 75 74 72 70 69 67 66 65 64 64 63 62 61 60 59 58 58 56 55 54 53 52 50 49 49 49 49 48 48 48 49 49 50 51
131 133 135 137 138 138 138 137 135 130 124 121 121 122 124 126 129 132 136 138 139 139 138 136 132 128 125 122 120 116 112 108 105 102 100 98 96 94 92 90 88 87 85 84 82 81 79 77 76 74 73 71 70 68 67 65 64 62 61 60 59 58 57 55 54 54 53 53 52 51 50 49 48 47 46 45 45 44 44 44 44 44 45 45 46
133 135 137 138 138 138 137 134 128 123 120 120 121 124 126 128 132 135 137 138 138 138 135 131 127 124 122 118 114 110 106 103 101 99 97 95 93 90 88 85 83 82 81 79 77 76 74 73 71 70 69 67 66 65 63 62 60 59 57 55 54 53 52 51 50 49 48 47 47 47 46 45 44 43 42 41 41 41 40 40 39 40 41 42 42
135 137 138 138 139 137 133 126 121 119 119 121 123 125 128 131 135 137 137 137 137 134 130 126 124 121 117 112 108 105 102 100 99 97 95 92 90 87 84 82 79 77 76 75 73 72 70 69 68 67 65 64 62 61 59 57 56 54 52 51 50 49 48 47 45 44 43 42 42 41 41 40 39 39 38 37 37 37 36 36 35 36 37 38 39
137 138 139 139 137 132 125 120 118 118 120 122 124 127 130 134 136 136 136 135 133 129 125 123 120 115 110 106 103 101 100 98 97 94 92 89 86 83 81 78 76 74 73 71 70 68 67 65 64 62 61 59 58 56 54 52 51 50 48 47 46 45 44 42 41 40 39 38 37 37 36 35 35 34 33 33 32 32 32 32 32 32 33 34 35
138 139 139 137 131 124 119 116 117 119 122 124 126 129 133 135 136 135 134 132 128 124 122 119 114 109 105 102 100 99 97 95 93 90 87 85 82 80 78 76 74 71 69 68 66 64 63 61 60 58 56 55 53 51 50 48 47 46 45 43 42 41 40 38 37 36 35 34 33 32 31 31 30 30 29 29 28 28 28 28 28 29 29 30 31
139 139 137 131 123 118 115 116 118 121 123 125 129 133 135 135 135 134 131 127 123 121 118 114 108 105 102 100 99 97 94 91 88 85 83 80 79 77 75 73 71 69 67 65 63 61 60 58 57 55 53 51 49 48 46 45 44 43 42 40 39 37 36 35 34 33 32 30 29 28 28 27 26 26 25 25 25 24 24 24 25 25 26 26 27
139 136 130 123 117 114 115 117 120 122 124 127 132 134 135 134 134 132 127 123 121 118 113 108 104 101 100 98 96 93 90 86 83 81 79 77 75 73 71 70 68 67 65 63 61 59 58 56 54 51 50 48 46 45 43 42 41 40 38 37 36 35 33 32 31 30 29 28 27 26 25 24 23 23 22 22 21 21 21 21 21 21 22 22 23
136 130 123 116 113 114 116 119 122 123 126 130 134 134 133 133 132 128 124 121 118 114 108 103 100 98 97 95 92 89 85 82 79 77 75 74 72 70 69 67 66 64 62 61 59 57 55 53 51 49 47 45 44 42 41 39 38 37 35 34 33 32 31 30 28 27 26 25 25 24 23 22 22 21 20 19 19 18 17 17 17 17 17 18 18
130 122 115 112 113 115 118 121 123 125 129 133 134 133 133 132 129 125 121 118 114 108 103 99 97 95 93 91 88 85 82 80 77 75 73 72 70 68 67 65 63 61 60 58 56 54 52 50 48 46 45 43 41 39 38 36 35 34 33 32 31 29 28 27 26 26 25 24 23 22 21 21 20 19 18 17 16 15 15 14 14 13 14 14 14
123 114 110 111 114 117 120 122 124 128 132 133 133 133 132 130 126 122 119 115 109 103 99 96 94 93 90 88 85 82 80 77 75 74 72 70 68 66 64 62 60 59 57 55 53 51 50 48 47 45 43 41 38 36 35 34 33 32 31 30 29 27 26 26 25 24 23 22 22 21 20 19 18 17 16 15 14 13 12 12 11 10 10 10 10
115 109 109 112 115 118 121 123 126 131 133 133 133 133 131 128 123 119 116 111 104 99 96 94 92 91 88 85 82 80 78 76 74 72 70 68 65 63 61 60 58 56 55 54 52 51 50 48 46 44 41 39 37 35 33 32 31 30 29 27 26 26 25 24 24 23 23 22 21 20 20 19 17 16 15 14 13 12 11 10 9 8 8 7 7
108 107 109 113 116 120 122 125 129 132 133 134 134 133 130 125 120 116 112 106 100 96 93 92 91 89 87 83 81 78 76 74 72 70 67 65 63 61 59 58 56 55 53 52 50 48 46 45 43 42 39 37 36 34 33 32 31 30 29 28 27 26 25 24 24 23 23 22 21 21 20 19 18 17 15 14 12 11 10 9 8 7 6 6 5
105 107 111 114 118 121 123 127 131 133 133 135 134 131 127 122 117 113 108 102 97 95 92 91 90 88 86 83 80 78 75 73 70 68 66 64 62 60 58 57 55 52 50 48 46 45 44 44 43 41 39 37 36 34 33 32 31 30 29 28 28 27 26 25 24 24 23 23 22 21 21 20 19 18 17 16 14 12 11 10 8 7 6 5 5
105 108 112 115 118 122 125 130 132 133 134 134 132 128 124 118 114 110 104 98 95 93 92 90 89 87 85 83 80 78 76 74 72 70 67 64 62 60 58 56 54 52 51 50 49 47 46 44 41 39 37 36 35 34 33 32 31 31 30 29 29 28 27 26 26 25 24 24 23 23 23 22 21 20 19 18 16 15 13 12 10 9 8 7 6
106 109 113 116 119 123 127 131 133 135 135 133 129 125 119 115 111 106 99 94 92 91 90 89 88 86 84 82 81 79 78 76 74 71 67 64 61 59 56 55 54 53 52 51 50 47 44 42 40 38 36 35 34 34 34 33 33 33 33 32 32 31 30 29 28 27 26 26 25 24 24 23 22 21 21 20 19 18 16 15 14 12 11 10 8
107 110 113 117 120 124 129 132 134 135 134 130 126 120 115 111 108 101 95 91 89 88 87 86 85 84 83 82 81 80 78 75 72 69 66 63 60 58 56 55 54 53 52 50 48 45 43 41 40 38 37 36 35 35 34 34 34 34 34 34 33 32 32 31 30 29 28 27 26 25 24 24 23 23 22 21 21 20 19 18 16 15 14 12 11
108 111 114 117 121 126 129 132 134 134 131 127 121 115 111 108 104 97 92 88 86 85 84 83 82 81 80 79 79 78 76 73 70 68 65 63 61 59 57 55 54 52 51 49 47 46 45 44 42 41 39 38 38 37 37 36 36 35 34 34 33 33 32 32 31 30 29 29 28 27 26 25 24 24 23 22 22 21 20 18 17 16 15 14 13
109 112 115 119 123 127 130 132 133 131 127 123 117 111 108 105 100 94 89 86 84 82 81 80 79 78 77 77 76 75 74 72 70 68 66 65 63 61 59 56 54 52 51 50 49 48 48 47 46 44 43 41 40 39 38 37 36 35 34 34 34 34 34 33 32 31 31 30 29 28 27 26 26 25 24 23 22 21 20 19 18 17 16 15 14
110 113 116 120 124 127 130 132 131 127 123 118 112 107 105 102 96 91 87 84 82 80 78 77 76 76 75 75 74 73 73 72 70 69 68 66 65 62 60 57 55 53 52 51 51 51 50 49 48 47 45 43 41 40 38 37 37 36 36 36 36 35 35 34 33 33 32 31 30 29 29 28 27 26 25 25 24 23 22 21 20 19 18 17 16
111 113 117 121 125 127 130 131 128 124 120 114 107 104 102 98 92 87 84 81 79 78 76 75 74 74 73 73 73 72 72 72 71 70 69 67 66 64 61 58 56 55 54 53 53 52 52 51 50 48 47 45 44 42 41 40 39 39 38 37 37 36 35 35 35 34 33 32 32 31 30 29 28 27 26 25 25 24 24 23 23 22 22 21 20
111 114 118 122 125 127 130 128 124 120 115 109 104 102 100 95 89 85 81 79 77 75 74 73 72 72 72 72 71 71 71 71 71 70 68 66 65 63 60 59 58 57 56 55 55 54 53 53 52 51 50 48 47 45 44 43 41 40 39 38 38 37 36 36 36 35 34 33 33 32 31 30 29 28 28 27 26 25 25 24 24 24 23 23 22
111 115 119 122 125 127 128 125 120 117 111 104 101 100 97 92 87 83 80 78 76 74 73 72 71 70 70 70 70 70 69 69 69 68 66 64 63 62 61 61 60 59 58 58 57 56 55 55 54 53 52 51 49 48 47 45 44 42 41 40 39 39 38 38 37 36 35 35 34 33 32 31 31 30 29 29 28 27 27 26 26 25 24 23 22
112 116 120 123 125 127 126 121 117 113 107 100 98 97 93 88 84 80 77 75 74 72 71 70 69 68 68 68 68 68 67 67 66 65 64 64 63 63 62 62 61 60 59 59 58 58 58 57 57 56 55 54 52 51 49 48 47 46 44 43 42 42 41 40 39 38 37 36 35 34 34 33 33 32 31 31 30 29 28 28 28 27 26 25 24
113 117 120 123 125 126 123 118 114 110 103 97 96 94 89 84 80 76 73 72 70 68 68 67 66 65 65 65 65 65 64 63 63 62 62 62 62 62 61 60 60 60 59 59 59 59 58 58 57 57 56 55 54 54 52 51 50 49 47 46 45 44 42 41 40 40 39 38 38 37 37 36 36 35 34 33 32 31 31 30 29 28 27 26 26
114 117 120 123 125 124 120 115 112 107 99 95 94 91 86 80 76 72 69 68 66 64 63 63 62 62 61 61 61 61 61 60 60 60 60 59 59 59 59 59 59 59 59 59 58 58 57 57 56 56 56 56 55 55 54 53 52 51 50 49 47 46 45 43 43 42 41 41 40 39 39 39 38 37 37 36 35 34 33 32 31 30 29 28 27
114 118 120 123 124 121 116 113 110 104 97 94 93 89 83 78 74 69 66 65 63 61 60 59 59 58 58 58 58 59 59 59 59 58 57 57 56 56 57 57 57 57 57 57 57 56 56 56 55 55 55 55 54 54 54 54 53 53 52 51 50 48 47 46 45 44 43 42 41 40 40 39 39 38 38 38 37 37 36 35 35 34 33 32 31
115 118 120 122 122 119 114 111 108 102 95 93 92 88 82 77 73 68 65 63 62 60 58 57 57 57 56 56 56 57 57 57 57 56 56 55 55 55 55 55 55 54 54 54 54 54 55 55 55 54 54 53 53 53 52 52 52 51 51 50 49 48 48 47 47 46 45 44 43 42 42 41 41 40 40 39 39 38 38 38 37 37 36 35 34
115 117 120 121 120 115 111 110 106 99 94 93 92 87 82 77 73 68 65 62 61 60 58 56 56 55 55 55 55 55 55 55 55 55 55 54 54 53 53 52 52 51 51 51 51 51 51 52 52 52 52 52 52 51 51 51 50 50 49 48 48 47 47 46 46 46 45 44 44 43 43 42 41 40 40 39 38 38 38 38 38 37 37 36 35
115 117 119 120 117 113 110 109 104 97 93 93 91 86 81 77 73 69 65 62 61 60 58 56 55 54 54 54 54 53 53 52 52 52 52 52 51 51 50 49 49 49 48 48 47 47 47 48 48 48 49 49 49 49 49 49 49 48 48 47 46 46 45 45 45 44 43 43 42 41 41 40 40 39 38 38 37 37 36 36 36 35 35 34 34
114 117 119 118 115 110 109 107 102 96 93 92 90 86 81 77 73 69 65 62 60 59 58 56 54 53 52 52 52 52 51 50 49 49 49 48 48 48 47 47 47 46 46 46 46 45 45 45 45 44 44 45 45 45 46 46 46 46 46 46 45 45 45 44 44 43 42 42 41 40 40 39 38 38 37 37 36 35 35 34 34 33 32 32 31
114 116 118 116 112 109 108 106 100 94 92 91 89 85 80 76 73 69 66 63 61 59 58 57 55 53 52 51 50 50 50 49 49 48 47 47 46 46 46 46 45 45 45 44 44 44 43 43 42 42 42 41 41 41 41 42 42 42 43 43 43 43 43 43 43 42 42 41 41 40 40 39 39 38 37 37 36 35 34 34 33 32 31 30 29
113 116 116 113 109 108 107 105 98 93 91 90 88 84 79 76 73 69 66 63 61 59 59 58 56 54 53 52 50 50 49 49 49 48 48 48 47 46 46 45 45 44 44 43 43 42 41 41 40 40 39 39 39 39 39 39 38 39 39 39 39 39 39 39 40 40 40 39 39 39 39 39 38 38 37 37 36 35 35 34 33 32 31 30 29
113 115 114 111 107 107 106 103 96 92 90 89 87 82 78 75 72 69 66 63 61 59 58 57 56 55 53 52 51 50 49 48 48 48 47 47 47 46 46 46 45 44 44 43 42 42 41 40 39 38 37 37 37 37 36 36 36 36 36 35 35 35 35 35 35 35 35 35 36 36 36 36 36 35 35 35 35 34 34 33 33 32 32 31 30
112 114 112 109 106 106 105 101 94 90 89 89 86 81 78 75 72 68 66 63 61 59 57 56 55 54 53 52 51 50 49 48 47 46 45 45 44 43 43 43 43 43 43 42 42 41 40 40 39 38 37 36 35 35 34 34 34 34 34 33 33 32 32 32 31 31 31 31 31 31 31 31 31 31 31 31 31 31 31 30 30 30 30 30 30
112 112 110 107 105 105 104 99 92 89 88 87 84 80 76 74 71 68 65 63 60 58 56 55 55 54 52 51 50 49 48 47 46 45 44 43 42 41 41 40 39 39 39 39 39 39 39 39 38 37 36 35 34 34 33 33 33 32 32 32 32 32 31 31 30 29 29 28 28 28 27 27 27 27 27 27 27 27 27 27 27 27 27 27 27
111 111 108 105 104 105 103 97 90 87 87 86 83 78 75 72 69 66 64 62 59 57 55 54 53 53 52 51 50 48 47 46 45 44 43 43 42 41 40 40 39 38 37 37 36 36 36 36 36 35 35 34 33 32 32 31 31 31 31 31 31 31 31 30 30 29 28 28 27 26 26 25 25 25 24 24 24 24 24 24 24 24 24 23 23
110 109 106 104 104 104 101 95 89 86 86 85 81 77 73 70 68 65 62 60 58 56 54 53 51 51 51 50 49 48 47 46 44 43 42 42 41 40 39 39 38 38 38 37 36 36 35 34 33 33 32 32 32 31 31 30 30 30 29 29 29 30 29 29 29 29 29 28 27 27 26 25 24 23 23 22 22 22 21 21 21 21 21 20 20
Wind_Direction
312 311 310 310 310 311 311 312 313 314 314 314 314 314 314 314 314 314 314 313 312 311 310 309 308 308 308 308 308 307 306 305 304 304 303 303 302 302 301 302 302 302 302 302 301 301 300 299 299 298 297 296 295 295 294 293 293 292 292 291 291 290 290 289 289 288 287 286 286 285 284 283 282 282 281 280 279 278 277 276 274 272 271 270 268
312 311 311 311 311 312 312 314 315 315 315 315 315 315 315 315 315 314 313 312 311 310 309 308 308 308 309 309 308 307 306 305 305 304 303 303 303 303 303 303 303 302 302 301 301 300 299 299 298 297 296 295 295 294 293 293 292 292 291 291 290 290 289 289 288 288 287 286 285 284 283 282 281 281 280 279 278 277 276 275 273 272 270 269 267
312 312 312 312 313 313 314 315 316 315 315 315 315 316 316 315 315 313 312 310 309 309 309 309 309 310 309 308 307 307 306 306 305 304 304 304 304 304 304 303 303 302 301 301 300 299 298 298 297 296 295 295 294 294 293 293 292 292 291 291 291 290 289 289 288 287 286 285 284 283 282 281 280 279 279 278 277 276 275 274 273 271 270 268 267
313 314 314 314 314 315 316 316 316 316 316 316 316 316 316 314 313 312 310 309 309 309 310 310 310 310 309 309 308 308 307 306 306 305 305 305 305 304 303 303 302 302 301 300 299 298 298 297 296 296 295 295 294 294 294 293 293 292 292 291 290 290 289 288 287 286 285 284 283 282 281 281 280 279 278 277 276 275 274 273 273 271 270 268 266
314 315 315 315 316 316 316 316 316 316 317 317 316 315 314 313 312 311 310 310 311 311 311 311 311 310 310 309 308 308 307 307 307 306 306 305 305 304 304 303 302 301 300 299 299 298 297 297 296 296 296 295 295 295 294 294 293 292 291 291 290 289 288 287 287 286 285 284 283 282 281 281 280 279 278 277 276 275 274 273 272 271 270 268 266
315 315 316 316 316 317 317 317 317 317 317 316 315 314 313 312 311 311 312 312 312 312 312 312 311 311 310 309 309 308 308 308 307 307 306 306 305 304 303 302 302 301 300 299 299 298 298 298 297 297 296 296 295 295 294 294 293 292 291 290 290 289 288 288 287 286 285 285 284 283 282 281 281 280 279 278 277 275 274 273 271 270 269 267 266
316 316 317 317 317 317 317 317 317 317 316 315 314 313 313 313 313 313 314 313 313 313 313 312 312 311 310 310 309 309 308 308 308 307 307 306 305 304 303 303 302 301 301 300 300 300 299 299 298 298 297 296 295 295 294 294 293 292 292 291 291 290 289 289 288 287 286 285 284 283 282 282 281 280 279 277 276 275 274 273 271 270 268 266 265
317 317 317 317 317 318 318 317 316 316 315 315 314 314 314 314 315 315 314 314 314 314 313 313 312 311 311 310 310 310 309 309 308 308 307 306 305 304 304 303 303 303 303 302 302 301 300 299 298 298 297 296 296 296 295 295 295 294 293 293 292 291 290 290 289 288 287 286 284 283 282 282 281 280 279 278 276 275 274 272 271 269 267 265 264
317 317 318 318 318 318 317 317 316 316 316 316 316 316 316 316 316 315 315 315 315 314 314 313 313 312 312 311 311 311 310 310 309 308 307 307 306 306 306 305 305 305 304 303 302 301 300 300 299 299 298 298 298 298 297 297 296 296 295 294 293 292 291 290 289 288 287 286 285 284 283 282 281 280 279 278 277 275 274 272 270 269 267 265 263
318 318 318 319 318 317 317 317 317 317 317 317 317 317 317 317 316 316 316 316 316 315 314 314 313 313 313 313 312 312 311 310 310 309 309 308 308 308 307 307 306 305 304 303 303 302 302 301 301 301 300 300 300 299 299 298 298 297 297 296 295 294 293 292 291 290 289 288 287 286 285 284 282 281 280 278 277 275 273 272 270 268 267 266 263
318 319 319 319 318 318 318 318 318 318 318 318 318 318 318 318 318 318 317 317 316 315 315 315 315 314 314 314 313 313 312 312 311 311 311 311 310 309 308 307 307 306 306 305 305 305 304 304 303 303 302 302 302 301 301 300 299 298 297 296 295 295 294 293 292 292 291 290 289 288 286 285 284 282 281 280 278 276 273 271 269 268 266 265 263
319 319 319 319 319 319 319 319 318 318 319 319 319 319 319 319 319 319 318 317 316 316 316 316 316 316 316 315 315 314 314 314 314 313 313 312 311 310 310 309 309 308 308 307 307 306 306 305 305 305 304 304 303 303 302 301 300 299 298 297 296 295 294 294 294 293 292 291 290 289 287 286 284 283 282 281 278 275 273 271 269 267 266 264 263
319 319 320 320 320 320 319 319 319 320 320 320 320 320 320 320 319 319 318 318 318 318 318 318 318 317 317 317 317 317 316 316 315 314 313 313 313 312 312 312 311 310 309 309 308 308 308 307 307 307 306 305 305 304 303 302 301 300 299 297 297 296 295 295 294 294 293 292 291 289 288 286 285 283 282 280 277 275 273 271 270 268 266 264 263
320 320 321 321 321 320 320 321 321 321 321 321 321 321 321 320 320 319 319 319 319 319 320 319 319 319 319 319 319 318 318 317 316 315 315 315 315 315 314 313 312 311 311 310 310 310 310 310 309 309 308 307 306 305 304 303 302 300 299 299 298 297 296 296 295 294 293 293 292 290 289 287 286 284 282 280 278 276 274 272 270 268 267 265 263
321 322 322 321 321 321 322 322 322 322 322 322 322 322 321 320 320 320 321 321 321 321 321 321 321 321 321 321 320 319 318 318 318 318 318 317 317 316 315 315 314 313 313 313 312 312 312 311 311 310 309 308 307 307 305 304 303 302 302 301 300 299 298 297 296 295 294 293 293 292 290 289 288 286 284 282 280 278 275 273 271 268 267 264 262
323 323 322 322 322 323 323 323 323 323 323 323 322 322 321 321 322 322 323 323 323 323 322 323 323 324 323 322 321 320 320 320 320 320 320 319 319 318 317 317 316 316 315 315 314 314 313 313 312 311 311 310 309 309 308 307 306 306 305 304 303 302 301 299 298 297 296 295 294 293 292 291 290 288 286 284 281 279 276 274 271 269 267 265 263
323 323 323 324 324 324 324 324 324 324 323 323 323 322 322 323 324 324 324 325 324 324 325 325 325 325 324 323 323 323 323 322 322 322 322 321 321 320 320 319 319 318 318 317 317 316 315 315 314 314 313 312 312 311 310 310 309 309 308 307 306 304 303 302 301 300 299 297 296 295 293 292 291 290 288 285 283 281 278 275 272 270 267 266 264
324 324 324 325 325 324 325 325 325 324 324 324 323 323 324 325 326 326 326 326 326 326 327 327 326 326 325 325 325 325 325 325 324 324 324 323 323 322 322 322 321 321 320 319 319 319 318 317 316 315 315 314 314 313 313 312 312 311 311 310 309 308 307 306 305 303 302 300 299 298 296 295 293 291 289 287 284 282 280 277 274 271 268 266 264
325 325 325 325 325 325 325 325 324 324 324 324 324 325 326 327 327 327 328 328 328 329 329 328 327 327 327 327 328 328 327 327 326 326 325 325 324 324 324 324 324 323 323 322 321 320 319 318 318 317 317 317 317 316 316 316 315 315 315 314 313 312 311 310 309 308 306 305 303 301 300 298 296 294 292 289 287 284 282 279 276 273 270 268 266
326 326 326 326 326 326 326 325 325 325 325 325 326 327 328 328 329 329 329 330 330 330 330 329 329 330 330 330 330 330 329 328 328 328 327 327 327 327 327 326 326 325 325 324 324 323 322 322 321 321 321 321 321 321 321 321 321 320 320 319 318 317 316 315 314 313 311 310 308 306 304 302 300 298 296 294 291 288 285 282 278 276 273 271 269
326 326 326 326 326 326 325 325 326 326 326 327 328 329 329 330 330 330 331 331 332 331 331 331 331 332 332 332 332 331 331 331 331 331 330 330 330 329 329 329 329 328 328 327 327 327 326 326 326 326 326 327 327 327 327 327 326 326 325 324 323 322 321 320 319 318 317 315 314 312 310 309 307 304 302 300 297 294 291 287 283 279 276 274 271
327 327 327 327 326 326 326 326 327 327 327 329 330 330 331 331 332 332 333 333 332 332 332 333 333 334 334 334 333 333 333 334 334 333 333 333 333 333 333 332 332 331 331 330 330 330 330 330 330 331 331 332 332 332 332 332 331 330 329 328 328 327 327 326 325 324 323 321 320 319 318 316 315 313 311 309 306 302 298 293 289 283 279 275 272
328 327 327 327 327 327 327 327 327 328 330 331 331 331 332 333 333 334 334 334 333 333 334 334 335 336 336 336 336 336 336 337 337 337 337 337 336 336 336 335 335 334 334 333 333 334 334 334 335 335 336 336 336 336 336 335 334 333 333 333 333 333 333 332 331 330 330 329 328 327 326 325 324 323 321 319 316 312 307 301 296 290 284 279 275
328 328 327 327 327 327 328 328 329 330 331 332 332 333 334 334 334 335 335 334 334 335 336 337 338 338 338 339 339 340 340 341 341 340 340 340 340 339 339 338 337 337 337 337 337 338 338 339 339 339 340 340 340 340 339 338 338 339 339 339 340 340 340 340 339 339 338 338 337 336 336 335 334 333 332 330 327 322 318 313 309 303 296 290 284
328 328 328 328 328 328 329 329 330 332 333 333 334 335 335 335 336 336 335 335 336 337 338 339 340 341 341 342 343 343 344 344 344 344 343 343 342 342 341 341 341 341 342 342 343 343 343 343 343 344 344 344 344 344 343 343 343 344 344 345 346 347 348 348 348 348 348 348 347 347 346 345 344 343 342 339 337 334 332 330 327 322 314 305 295
328 328 329 328 329 329 330 331 332 333 334 335 335 335 336 336 337 336 336 336 337 339 340 341 342 343 344 345 346 347 348 347 347 347 346 346 346 346 346 346 346 347 348 348 347 347 346 347 348 348 348 348 348 348 348 349 349 350 351 352 354 355 356 356 357 357 357 358 358 358 357 356 355 354 352 351 349 348 347 347 345 341 335 326 313
329 329 329 329 330 330 331 332 333 335 336 336 336 336 337 337 337 337 337 338 339 341 342 344 345 345 347 348 350 350 350 350 350 350 350 350 350 350 351 350 350 350 351 350 350 351 352 353 353 353 354 354 354 355 355 356 357 357 358 359 0 1 2 3 4 5 7 8 9 9 9 8 7 6 4 2 0 359 360 0 359 358 355 350 342
329 330 330 330 331 332 332 333 335 336 337 337 337 337 337 338 338 338 339 340 341 343 344 345 346 348 349 351 352 352 353 353 354 354 354 354 354 355 355 354 354 354 355 355 356 357 357 357 357 358 359 360 0 1 2 3 4 5 5 6 7 7 8 10 11 13 15 17 18 19 19 19 18 17 15 14 12 10 10 10 9 10 10 10 9
330 330 330 331 332 333 333 335 336 337 337 337 337 338 338 338 338 339 340 342 343 345 346 347 348 350 351 353 354 355 356 357 357 357 357 357 358 358 358 358 359 1 1 1 1 1 -0 0 1 2 4 5 6 7 9 10 11 12 13 13 13 14 14 16 17 18 21 23 24 26 26 27 27 27 26 25 24 23 22 21 20 20 21 22 24
331 330 331 332 333 334 335 336 337 337 337 337 338 338 338 338 339 340 341 343 345 347 347 348 350 352 353 355 356 357 358 359 359 360 360 0 1 1 2 4 5 6 7 6 6 5 4 5 6 7 8 10 11 13 14 16 17 17 18 18 19 20 20 21 22 23 25 27 28 29 31 32 33 34 35 35 35 35 34 33 32 32 32 34 35
331 331 332 333 334 335 336 337 338 337 337 338 338 338 338 339 340 341 343 345 347 348 348 350 351 353 355 357 358 359 360 0 1 2 3 4 4 5 7 8 10 11 11 12 11 11 11 11 11 12 13 14 15 17 18 19 20 21 21 22 23 24 25 26 26 27 28 30 31 32 34 35 36 38 40 41 42 43 44 44 44 44 45 46 47
331 332 333 334 335 336 337 338 338 337 338 338 339 339 339 340 341 342 344 346 348 348 349 350 352 354 356 358 359 360 1 2 3 5 6 7 8 10 11 12 13 14 15 16 17 17 17 17 17 17 17 18 19 20 22 23 24 24 25 26 27 28 29 29 30 31 32 32 33 34 36 38 39 40 42 44 45 47 48 49 51 52 54 56 59
331 333 334 335 335 337 338 338 338 338 338 339 339 339 340 341 342 343 345 347 348 348 349 351 353 355 357 359 360 1 2 3 5 7 9 11 12 13 14 15 16 17 19 20 21 22 22 22 22 22 21 22 22 23 25 25 27 28 28 29 30 31 32 32 33 34 34 35 36 37 38 40 42 43 45 47 47 48 49 49 50 51 52 55 58
332 334 335 335 336 337 338 338 338 338 339 340 340 340 341 341 342 344 345 347 348 349 350 352 354 356 358 359 0 1 3 5 7 9 11 13 15 16 17 18 19 20 22 23 25 26 26 26 26 26 26 26 26 26 27 28 29 30 32 32 33 34 34 35 36 37 37 38 39 41 42 43 45 46 48 49 50 51 53 53 54 54 55 55 56
333 335 335 336 337 338 338 338 338 339 340 340 340 341 342 342 343 344 346 347 348 349 350 352 355 357 358 359 1 2 3 6 8 10 12 14 16 17 19 20 22 24 25 27 29 29 30 30 30 30 30 29 29 30 30 31 32 33 34 35 36 37 38 39 39 40 41 42 43 45 46 47 48 49 50 51 52 53 55 56 58 59 61 62 63
334 335 336 336 337 338 338 338 339 340 341 341 341 342 343 343 344 345 346 347 348 349 350 353 355 357 358 360 1 2 4 6 8 10 12 14 16 18 19 21 24 26 28 29 31 32 33 33 34 33 33 33 33 33 33 34 35 36 37 38 39 40 41 42 42 43 44 44 45 47 48 50 51 52 53 53 54 55 56 58 59 60 62 64 66
335 336 336 337 338 338 339 339 340 341 342 342 342 343 344 344 345 345 346 347 348 349 351 353 355 357 358 359 0 2 3 5 7 9 11 13 16 18 20 22 24 26 28 30 32 33 34 35 36 36 36 36 36 36 37 37 37 38 38 39 40 41 42 43 44 45 46 46 47 48 50 51 52 53 54 55 57 58 60 60 61 63 64 65 66
336 336 336 337 338 338 339 339 341 342 342 342 343 344 344 345 345 346 347 347 348 349 350 352 354 356 358 359 -0 1 3 4 6 8 10 13 15 18 21 22 24 26 28 30 31 33 34 35 36 37 38 38 39 39 39 40 40 40 41 41 42 43 43 44 45 46 47 48 48 49 51 52 53 54 55 56 57 58 59 61 62 64 65 67 68
336 336 336 337 338 339 339 340 342 343 343 343 343 344 345 345 346 346 347 348 348 348 350 352 354 356 357 358 359 0 2 4 6 8 10 12 14 17 20 22 24 26 28 30 31 33 34 35 36 37 38 39 40 40 41 41 42 42 42 42 42 43 44 44 46 47 48 49 50 51 52 53 55 56 57 57 58 59 60 61 62 63 65 66 67
336 336 337 337 338 339 340 341 343 343 343 343 344 345 345 346 347 347 348 349 349 349 349 351 353 355 356 358 359 0 2 3 5 7 9 11 14 16 18 20 23 25 28 29 31 32 33 34 35 36 37 38 39 40 40 41 42 42 43 43 43 43 44 45 46 47 48 49 50 51 53 54 55 56 57 58 59 59 60 61 62 62 63 64 65
336 336 337 338 339 339 341 342 343 344 343 343 344 345 346 347 347 348 349 350 350 350 350 351 352 355 357 358 359 -0 1 2 4 5 7 10 13 15 17 18 20 23 25 27 29 31 33 34 35 35 36 37 38 39 40 41 41 42 42 43 43 44 44 45 46 47 47 48 49 50 51 52 53 54 55 56 58 58 59 60 61 62 62 63 64
336 336 337 338 339 340 342 343 344 344 344 344 345 346 347 347 348 349 350 351 352 352 351 351 352 354 356 358 359 360 1 2 3 4 5 7 10 13 15 17 18 20 22 24 26 29 31 33 34 35 36 37 37 38 39 40 41 41 41 41 42 43 43 44 45 46 46 46 47 48 49 50 51 52 53 54 55 56 57 59 60 61 61 62 63
336 337 337 339 340 341 343 344 345 344 344 344 345 346 347 348 349 350 351 352 353 353 353 353 353 354 355 357 359 359 360 1 2 3 4 6 8 10 12 14 16 17 19 21 23 25 27 29 31 33 34 36 37 37 38 39 40 40 41 41 41 41 42 43 44 44 45 45 45 46 47 48 49 50 50 51 52 53 54 56 57 58 59 60 61
337 337 338 339 341 342 344 345 345 345 344 345 346 347 348 348 349 350 352 353 353 354 354 354 354 354 355 356 357 358 359 359 0 2 3 4 6 7 9 11 13 14 16 17 19 21 23 25 27 29 31 33 34 36 37 38 39 40 40 40 40 40 41 41 42 43 43 43 44 45 45 46 47 48 48 49 49 50 51 52 53 55 56 57 58
337 337 339 340 341 343 344 345 345 345 344 345 346 347 348 349 350 351 352 353 354 354 354 354 355 354 354 355 355 356 357 358 358 360 1 2 4 5 7 8 10 11 13 14 16 17 19 21 22 24 25 27 29 31 33 35 36 37 38 39 39 40 40 40 40 41 42 42 43 43 44 44 45 45 46 46 47 47 48 49 51 52 53 54 55
337 338 339 341 342 344 345 346 345 345 345 345 346 348 349 349 350 351 352 353 354 354 354 354 355 355 354 354 354 355 355 356 357 358 359 360 1 2 4 5 7 8 10 11 12 14 15 17 18 20 21 22 24 26 27 29 31 32 33 35 36 37 38 38 39 39 39 40 41 42 42 43 43 43 44 45 45 45 46 47 48 49 51 52 53
337 339 340 342 343 345 346 346 345 344 345 346 347 348 349 349 350 351 352 353 353 354 354 354 354 354 354 354 354 354 354 355 355 356 357 357 358 359 360 1 2 4 6 7 9 10 12 13 15 16 18 19 20 22 23 24 25 26 28 29 30 32 33 35 36 36 36 37 38 39 40 41 41 42 42 43 43 43 43 44 44 46 47 49 51
338 339 341 342 344 345 346 346 345 344 345 346 347 348 349 349 350 351 351 352 353 353 353 354 354 354 353 353 353 353 353 354 354 355 355 356 356 357 357 358 358 359 0 2 4 5 7 9 11 12 14 16 18 19 21 21 22 22 23 23 24 25 26 28 30 31 32 32 33 35 36 37 38 39 40 40 41 41 41 41 41 42 42 43 45
339 340 342 343 344 346 346 346 345 344 345 346 348 349 349 349 350 351 351 352 352 352 352 353 353 353 353 353 353 352 352 353 353 353 354 354 355 355 356 356 356 356 357 357 358 359 1 2 4 6 8 11 13 14 17 19 20 20 20 20 20 20 21 22 23 24 25 25 27 28 29 31 33 34 35 36 37 37 38 38 38 39 39 39 39
339 341 342 344 345 346 346 346 344 344 345 347 348 349 349 349 350 350 351 351 352 352 351 352 352 353 353 353 352 352 352 351 351 351 351 352 353 353 354 355 356 356 356 356 356 356 356 357 357 359 0 2 4 6 8 10 12 14 15 16 16 16 17 18 18 19 19 20 20 21 22 23 25 26 27 29 29 30 31 32 33 34 35 36 37
340 341 343 344 345 346 346 345 344 344 346 347 348 349 349 349 350 350 351 351 351 351 351 351 351 352 353 353 353 352 352 352 351 351 351 351 351 352 352 353 354 354 355 355 355 355 355 354 354 354 353 354 355 356 358 359 1 3 4 6 7 9 10 11 12 12 13 14 14 15 16 17 19 20 21 22 22 22 23 23 24 26 27 28 30